Hourly Weather Rudno

Today, 15 April, Thursday

Time Temperature Precipitation Wind Pressure Humidity
00:00 -1°C° 0.1 mm 6 mps 760 mmHg 85%
01:00 -1°C° 0 mm 6 mps 760 mmHg 90%
02:00 -1°C° 0.4 mm 6 mps 759 mmHg 92%
03:00 -1°C° 0.4 mm 6 mps 759 mmHg 94%
04:00 -1°C° 0.4 mm 6 mps 759 mmHg 96%
05:00 -1°C° 0.6 mm 6 mps 759 mmHg 96%
06:00 -1°C° 0.6 mm 6 mps 759 mmHg 96%
07:00 -1°C° 0.6 mm 6 mps 758 mmHg 96%
08:00 -1°C° 0.8 mm 6 mps 758 mmHg 97%
09:00 -1°C° 0.8 mm 6 mps 758 mmHg 97%
10:00 -1°C° 0.8 mm 6 mps 758 mmHg 97%
11:00 -1°C° 0.7 mm 6 mps 758 mmHg 97%
12:00 -1°C° 0.7 mm 6 mps 758 mmHg 97%
13:00 -1°C° 0.7 mm 6 mps 758 mmHg 97%
14:00 0°C° 0.5 mm 5 mps 758 mmHg 97%
15:00 +1°C° 0.5 mm 5 mps 758 mmHg 97%
16:00 +1°C° 0.5 mm 5 mps 758 mmHg 97%
17:00 +1°C° 0.4 mm 5 mps 758 mmHg 96%
18:00 +2°C° 0.4 mm 5 mps 758 mmHg 95%
19:00 +2°C° 0.4 mm 5 mps 758 mmHg 94%
20:00 +2°C° 0.2 mm 5 mps 758 mmHg 94%
21:00 +2°C° 0.2 mm 5 mps 758 mmHg 94%
22:00 +2°C° 0.2 mm 5 mps 758 mmHg 94%
23:00 +3°C° 0.2 mm 4 mps 758 mmHg 95%

Tomorrow, 16 April, Friday

Time Temperature Precipitation Wind Pressure Humidity
00:00 +3°C° 0.2 mm 4 mps 758 mmHg 95%
01:00 +3°C° 0.2 mm 4 mps 758 mmHg 96%
02:00 +3°C° 0.4 mm 4 mps 758 mmHg 95%
03:00 +3°C° 0.4 mm 4 mps 757 mmHg 94%
04:00 +1°C° 0.4 mm 4 mps 757 mmHg 93%
05:00 +1°C° 0 mm 4 mps 757 mmHg 92%
06:00 +1°C° 0 mm 4 mps 757 mmHg 91%
07:00 +1°C° 0 mm 4 mps 757 mmHg 90%
08:00 +1°C° 0 mm 4 mps 758 mmHg 91%
09:00 +3°C° 0 mm 4 mps 758 mmHg 92%
10:00 +3°C° 0 mm 4 mps 758 mmHg 94%
11:00 +3°C° 0.1 mm 4 mps 758 mmHg 94%
12:00 +3°C° 0.1 mm 4 mps 758 mmHg 94%
13:00 +3°C° 0.1 mm 4 mps 758 mmHg 94%
14:00 +3°C° 0.3 mm 4 mps 758 mmHg 94%
15:00 +3°C° 0.3 mm 4 mps 758 mmHg 94%
16:00 +3°C° 0.3 mm 4 mps 758 mmHg 94%
17:00 +3°C° 0.4 mm 3 mps 758 mmHg 95%
18:00 +3°C° 0.4 mm 3 mps 758 mmHg 96%
19:00 +3°C° 0.4 mm 3 mps 758 mmHg 97%
20:00 +3°C° 0 mm 3 mps 758 mmHg 97%
21:00 +3°C° 0 mm 3 mps 758 mmHg 97%
22:00 +4°C° 0 mm 2 mps 758 mmHg 98%
23:00 +4°C° 0 mm 2 mps 758 mmHg 98%

Day after tomorrow, 17 April, Saturday

Time Temperature Precipitation Wind Pressure Humidity
00:00 +4°C° 0 mm 2 mps 758 mmHg 98%
01:00 +4°C° 0 mm 2 mps 758 mmHg 98%
02:00 +5°C° 0 mm 2 mps 758 mmHg 98%
03:00 +4°C° 0 mm 3 mps 758 mmHg 98%
04:00 +4°C° 0 mm 3 mps 758 mmHg 98%
05:00 +4°C° 0 mm 3 mps 758 mmHg 98%
06:00 +5°C° 0 mm 3 mps 758 mmHg 97%
07:00 +5°C° 0 mm 3 mps 758 mmHg 97%
08:00 +6°C° 1 mm 2 mps 758 mmHg 97%
09:00 +7°C° 1 mm 2 mps 758 mmHg 97%
10:00 +7°C° 1 mm 2 mps 758 mmHg 97%
11:00 +8°C° 0.4 mm 2 mps 758 mmHg 93%
12:00 +9°C° 0.4 mm 2 mps 758 mmHg 90%
13:00 +9°C° 0.4 mm 2 mps 758 mmHg 86%
14:00 +10°C° 0.1 mm 2 mps 758 mmHg 82%
15:00 +12°C° 0.1 mm 2 mps 758 mmHg 78%
16:00 +13°C° 0.1 mm 2 mps 758 mmHg 74%
17:00 +12°C° 0.3 mm 2 mps 758 mmHg 79%
18:00 +10°C° 0.3 mm 2 mps 758 mmHg 84%
19:00 +9°C° 0.3 mm 2 mps 758 mmHg 89%
20:00 +8°C° 0.1 mm 2 mps 759 mmHg 90%
21:00 +8°C° 0.1 mm 2 mps 759 mmHg 91%
22:00 +7°C° 0.1 mm 3 mps 759 mmHg 92%
23:00 +7°C° 0 mm 3 mps 759 mmHg 92%

18 April, Sunday

Time Temperature Precipitation Wind Pressure Humidity
00:00 +7°C° 0 mm 3 mps 759 mmHg 92%
01:00 +7°C° 0 mm 3 mps 759 mmHg 91%
02:00 +5°C° 0 mm 3 mps 759 mmHg 92%
03:00 +6°C° 0 mm 2 mps 759 mmHg 92%
04:00 +6°C° 0 mm 2 mps 759 mmHg 92%
05:00 +7°C° 0 mm 2 mps 759 mmHg 92%
06:00 +7°C° 0 mm 2 mps 759 mmHg 91%
07:00 +7°C° 0 mm 2 mps 759 mmHg 91%
08:00 +8°C° 0.2 mm 2 mps 759 mmHg 90%
09:00 +9°C° 0.2 mm 3 mps 759 mmHg 88%
10:00 +9°C° 0.2 mm 3 mps 759 mmHg 87%
11:00 +10°C° 0.1 mm 3 mps 759 mmHg 84%
12:00 +11°C° 0.1 mm 3 mps 759 mmHg 81%
13:00 +11°C° 0.1 mm 4 mps 759 mmHg 78%
14:00 +11°C° 0.1 mm 4 mps 759 mmHg 76%
15:00 +12°C° 0.1 mm 3 mps 759 mmHg 74%
16:00 +12°C° 0.1 mm 3 mps 758 mmHg 72%
17:00 +11°C° 0.1 mm 3 mps 759 mmHg 78%
18:00 +10°C° 0.1 mm 3 mps 759 mmHg 84%
19:00 +9°C° 0.1 mm 2 mps 759 mmHg 90%
20:00 +9°C° 0.2 mm 2 mps 759 mmHg 91%
21:00 +9°C° 0.2 mm 2 mps 759 mmHg 93%
22:00 +9°C° 0.2 mm 2 mps 759 mmHg 95%
23:00 +9°C° 0.1 mm 2 mps 759 mmHg 95%

19 April, Monday

Time Temperature Precipitation Wind Pressure Humidity
00:00 +9°C° 0.1 mm 2 mps 759 mmHg 96%
01:00 +9°C° 0.1 mm 2 mps 759 mmHg 96%
02:00 +8°C° 0.1 mm 2 mps 759 mmHg 96%
03:00 +8°C° 0.1 mm 2 mps 759 mmHg 96%
04:00 +7°C° 0.1 mm 2 mps 759 mmHg 96%
05:00 +8°C° 0.1 mm 3 mps 759 mmHg 94%
06:00 +8°C° 0.1 mm 4 mps 759 mmHg 92%
07:00 +8°C° 0.1 mm 4 mps 759 mmHg 91%
08:00 +10°C° 0.1 mm 5 mps 759 mmHg 83%
09:00 +12°C° 0.1 mm 5 mps 759 mmHg 75%
10:00 +13°C° 0.1 mm 6 mps 759 mmHg 67%
11:00 +14°C° 0.1 mm 6 mps 759 mmHg 62%
12:00 +14°C° 0.1 mm 6 mps 758 mmHg 57%
13:00 +15°C° 0.1 mm 6 mps 758 mmHg 52%
14:00 +15°C° 0.1 mm 6 mps 758 mmHg 55%
15:00 +14°C° 0.1 mm 6 mps 758 mmHg 58%
16:00 +13°C° 0.1 mm 6 mps 758 mmHg 60%
17:00 +12°C° 0 mm 5 mps 758 mmHg 65%
18:00 +11°C° 0 mm 4 mps 758 mmHg 70%
19:00 +9°C° 0 mm 3 mps 758 mmHg 74%
20:00 +9°C° 0 mm 3 mps 758 mmHg 74%
21:00 +9°C° 0 mm 3 mps 758 mmHg 75%
22:00 +9°C° 0 mm 3 mps 758 mmHg 75%
23:00 +9°C° 0 mm 3 mps 758 mmHg 76%

20 April, Tuesday

Time Temperature Precipitation Wind Pressure Humidity
00:00 +8°C° 0 mm 3 mps 758 mmHg 77%
01:00 +8°C° 0 mm 3 mps 758 mmHg 78%
02:00 +7°C° 0 mm 3 mps 758 mmHg 80%
03:00 +7°C° 0 mm 3 mps 758 mmHg 81%
04:00 +7°C° 0 mm 3 mps 758 mmHg 83%
05:00 +7°C° 0 mm 3 mps 758 mmHg 79%
06:00 +8°C° 0 mm 3 mps 758 mmHg 76%
07:00 +8°C° 0 mm 4 mps 758 mmHg 72%
08:00 +10°C° 0 mm 4 mps 758 mmHg 67%
09:00 +10°C° 0 mm 4 mps 758 mmHg 62%
10:00 +11°C° 0 mm 4 mps 758 mmHg 57%
11:00 +12°C° 0 mm 4 mps 758 mmHg 54%
12:00 +13°C° 0 mm 3 mps 757 mmHg 51%
13:00 +13°C° 0 mm 3 mps 757 mmHg 47%
14:00 +13°C° 0 mm 3 mps 757 mmHg 51%
15:00 +14°C° 0 mm 2 mps 757 mmHg 55%
16:00 +13°C° 0 mm 2 mps 756 mmHg 58%
17:00 +13°C° 0 mm 2 mps 756 mmHg 60%
18:00 +12°C° 0 mm 2 mps 756 mmHg 61%
19:00 +10°C° 0 mm 2 mps 756 mmHg 63%
20:00 +10°C° 0 mm 2 mps 756 mmHg 65%
21:00 +10°C° 0 mm 2 mps 756 mmHg 67%
22:00 +9°C° 0 mm 2 mps 756 mmHg 69%
23:00 +10°C° 0 mm 1 mps 756 mmHg 70%
Show more